Simultaneous Nadir Overpasses (SNOs) Predictions

Prediction of SNOs between GOES-14 and NPP Satellite Orbit:

Table of predicted SNOs for the next 14.0 days since TLE Epoch: 7/30/2022
Index Date Time (GOES-14) GOES-14 Lat,Lon NPP Lat,Lon Distance(km) Time Diff (sec)
1 07/30/2022 08:39:44 -0.38,-104.44 0.44,-108.18 426.50 80
2 07/31/2022 08:18:19 -0.36,-104.43 -0.53,-103.65 89.05 80
3 08/01/2022 20:40:19 0.39,-104.70 -0.56,-108.98 487.36 80
4 08/02/2022 20:24:14 0.38,-104.70 0.42,-104.44 29.31 80
5 08/05/2022 08:27:19 -0.40,-104.42 -0.24,-105.18 86.16 80
6 08/06/2022 08:05:55 -0.38,-104.41 -1.22,-100.65 428.97 80
7 08/07/2022 20:27:54 0.41,-104.67 0.13,-105.98 149.02 80
8 08/08/2022 20:11:49 0.40,-104.66 1.11,-101.44 366.90 80
9 08/10/2022 08:33:38 -0.43,-104.40 0.10,-106.71 263.62 80
10 08/11/2022 08:12:14 -0.42,-104.38 -0.93,-102.18 251.15 80
11 08/12/2022 20:34:12 0.45,-104.62 -0.20,-107.50 328.87 80
